Station Historical Data
Daily Summary for July 14, 2017 Units:  English    Metric   Both
« Previous Day
Next Day »
Daily Weekly Monthly Yearly Custom
  High: Low: Average:
Temperature: 88.6 °F 69.9 °F 76.8 °F
Dew Point: 59.7 °F 47.8 °F 53.9 °F
Humidity: 58 % 29 % 46 %
Wind Speed: 12.0 mph 0.0 mph 2.1 mph
Wind Gust: 18.0 mph - -
Wind:- - SE
Pressure: 30.00 in 29.94 in -
Precipitation: 0.00 in    
Historical Graphs
 
 
Tabular Data for July 14, 2017
Time Temperature Dew Point Pressure Wind Wind Speed Wind Gust Humidity Rainfall Rate (Hourly) solar
00:00 71.8 °F 54.3 °F 29.96 in Calm   6.0 mph 54 % 0.00 in 0.00 W/m2
00:05 71.8 °F 54.3 °F 29.96 in Calm   5.0 mph 54 % 0.00 in 0.00 W/m2
00:10 71.7 °F 54.2 °F 29.96 in ESE 1.0 mph 7.0 mph 54 % 0.00 in 0.00 W/m2
00:15 71.6 °F 54.6 °F 29.96 in East 6.0 mph 8.0 mph 55 % 0.00 in 0.00 W/m2
00:20 71.5 °F 54.5 °F 29.95 in Calm   8.0 mph 55 % 0.00 in 0.00 W/m2
00:25 71.3 °F 54.3 °F 29.95 in East 1.0 mph 11.0 mph 55 % 0.00 in 0.00 W/m2
00:26 71.3 °F 54.3 °F 29.95 in East 9.0 mph 11.0 mph 55 % 0.00 in 0.00 W/m2
00:31 71.1 °F 54.6 °F 29.95 in Calm   13.0 mph 56 % 0.00 in 0.00 W/m2
00:36 71.0 °F 54.5 °F 29.95 in Calm   8.0 mph 56 % 0.00 in 0.00 W/m2
00:41 71.0 °F 54.5 °F 29.95 in East 4.0 mph 9.0 mph 56 % 0.00 in 0.00 W/m2
00:46 70.9 °F 54.4 °F 29.95 in Calm   9.0 mph 56 % 0.00 in 0.00 W/m2
00:51 70.9 °F 54.4 °F 29.95 in East 1.0 mph 12.0 mph 56 % 0.00 in 0.00 W/m2
00:56 70.9 °F 54.4 °F 29.95 in East 5.0 mph 9.0 mph 56 % 0.00 in 0.00 W/m2
01:01 70.9 °F 54.4 °F 29.95 in East 7.0 mph 7.0 mph 56 % 0.00 in 0.00 W/m2
01:06 70.9 °F 54.4 °F 29.95 in East 1.0 mph 11.0 mph 56 % 0.00 in 0.00 W/m2
01:11 70.9 °F 54.4 °F 29.95 in Calm   11.0 mph 56 % 0.00 in 0.00 W/m2
01:15 70.9 °F 54.4 °F 29.95 in East 7.0 mph 9.0 mph 56 % 0.00 in 0.00 W/m2
01:20 70.8 °F 54.3 °F 29.95 in East 2.0 mph 12.0 mph 56 % 0.00 in 0.00 W/m2
01:25 70.9 °F 54.4 °F 29.95 in East 4.0 mph 12.0 mph 56 % 0.00 in 0.00 W/m2
01:31 70.9 °F 54.0 °F 29.95 in Calm   15.0 mph 55 % 0.00 in 0.00 W/m2
01:36 71.0 °F 54.0 °F 29.95 in ESE 7.0 mph 11.0 mph 55 % 0.00 in 0.00 W/m2
01:41 71.0 °F 54.0 °F 29.95 in Calm   13.0 mph 55 % 0.00 in 0.00 W/m2
01:46 71.1 °F 54.1 °F 29.95 in ESE 2.0 mph 12.0 mph 55 % 0.00 in 0.00 W/m2
01:51 71.1 °F 54.1 °F 29.95 in Calm   12.0 mph 55 % 0.00 in 0.00 W/m2
01:56 71.2 °F 53.7 °F 29.95 in ESE 6.0 mph 12.0 mph 54 % 0.00 in 0.00 W/m2
02:01 71.2 °F 53.7 °F 29.94 in Calm   11.0 mph 54 % 0.00 in 0.00 W/m2
02:06 71.2 °F 53.7 °F 29.95 in Calm   11.0 mph 54 % 0.00 in 0.00 W/m2
02:11 71.3 °F 53.8 °F 29.95 in East 5.0 mph 5.0 mph 54 % 0.00 in 0.00 W/m2
02:16 71.3 °F 53.3 °F 29.95 in Calm   9.0 mph 53 % 0.00 in 0.00 W/m2
02:21 71.4 °F 53.4 °F 29.94 in ESE 9.0 mph 9.0 mph 53 % 0.00 in 0.00 W/m2
02:26 71.4 °F 53.4 °F 29.94 in Calm   6.0 mph 53 % 0.00 in 0.00 W/m2
02:31 71.4 °F 52.9 °F 29.94 in East 12.0 mph 12.0 mph 52 % 0.00 in 0.00 W/m2
02:36 71.4 °F 52.9 °F 29.94 in ESE 5.0 mph 7.0 mph 52 % 0.00 in 0.00 W/m2
02:41 71.4 °F 52.9 °F 29.94 in East 8.0 mph 11.0 mph 52 % 0.00 in 0.00 W/m2
02:46 71.4 °F 52.9 °F 29.94 in ESE 4.0 mph 11.0 mph 52 % 0.00 in 0.00 W/m2
02:51 71.4 °F 52.9 °F 29.95 in Calm   7.0 mph 52 % 0.00 in 0.00 W/m2
02:56 71.4 °F 52.3 °F 29.94 in ESE 11.0 mph 11.0 mph 51 % 0.00 in 0.00 W/m2
03:01 71.4 °F 52.3 °F 29.94 in East 7.0 mph 9.0 mph 51 % 0.00 in 0.00 W/m2
03:06 71.4 °F 51.8 °F 29.94 in East 6.0 mph 11.0 mph 50 % 0.00 in 0.00 W/m2
03:11 71.4 °F 51.8 °F 29.94 in East 5.0 mph 7.0 mph 50 % 0.00 in 0.00 W/m2
03:16 71.4 °F 51.8 °F 29.94 in ESE 11.0 mph 12.0 mph 50 % 0.00 in 0.00 W/m2
03:21 71.3 °F 51.2 °F 29.94 in ESE 8.0 mph 14.0 mph 49 % 0.00 in 0.00 W/m2
03:26 71.3 °F 51.2 °F 29.94 in ESE 1.0 mph 11.0 mph 49 % 0.00 in 0.00 W/m2
03:31 71.3 °F 51.2 °F 29.94 in ESE 2.0 mph 7.0 mph 49 % 0.00 in 0.00 W/m2
03:36 71.3 °F 51.2 °F 29.94 in East 8.0 mph 8.0 mph 49 % 0.00 in 0.00 W/m2
03:41 71.2 °F 51.1 °F 29.94 in Calm   7.0 mph 49 % 0.00 in 0.00 W/m2
03:46 71.2 °F 51.1 °F 29.94 in ESE 2.0 mph 12.0 mph 49 % 0.00 in 0.00 W/m2
03:51 71.2 °F 51.1 °F 29.94 in East 11.0 mph 12.0 mph 49 % 0.00 in 0.00 W/m2
03:56 71.1 °F 51.0 °F 29.94 in East 1.0 mph 11.0 mph 49 % 0.00 in 0.00 W/m2
04:01 71.0 °F 50.3 °F 29.94 in Calm   6.0 mph 48 % 0.00 in 0.00 W/m2
04:06 70.9 °F 50.2 °F 29.94 in Calm   8.0 mph 48 % 0.00 in 0.00 W/m2
04:08 70.9 °F 50.2 °F 29.94 in ESE 2.0 mph 11.0 mph 48 % 0.00 in 0.00 W/m2
04:13 70.9 °F 50.2 °F 29.94 in East 5.0 mph 13.0 mph 48 % 0.00 in 0.00 W/m2
04:18 70.8 °F 49.6 °F 29.94 in Calm   14.0 mph 47 % 0.00 in 0.00 W/m2
04:23 70.8 °F 49.6 °F 29.94 in Calm   11.0 mph 47 % 0.00 in 0.00 W/m2
04:28 70.8 °F 49.6 °F 29.94 in East 4.0 mph 18.0 mph 47 % 0.00 in 0.00 W/m2
04:33 70.7 °F 48.9 °F 29.94 in East 8.0 mph 11.0 mph 46 % 0.00 in 0.00 W/m2
04:38 70.7 °F 48.9 °F 29.94 in Calm   11.0 mph 46 % 0.00 in 0.00 W/m2
04:43 70.6 °F 48.8 °F 29.94 in East 7.0 mph 11.0 mph 46 % 0.00 in 0.00 W/m2
04:48 70.6 °F 48.8 °F 29.94 in East 6.0 mph 13.0 mph 46 % 0.00 in 0.00 W/m2
04:53 70.5 °F 48.8 °F 29.94 in ESE 4.0 mph 11.0 mph 46 % 0.00 in 0.00 W/m2
04:54 70.5 °F 48.8 °F 29.94 in ESE 2.0 mph 11.0 mph 46 % 0.00 in 0.00 W/m2
04:59 70.5 °F 48.8 °F 29.94 in ESE 5.0 mph 12.0 mph 46 % 0.00 in 0.00 W/m2
05:04 70.4 °F 48.7 °F 29.94 in East 9.0 mph 13.0 mph 46 % 0.00 in 0.00 W/m2
05:09 70.4 °F 48.7 °F 29.94 in ESE 8.0 mph 14.0 mph 46 % 0.00 in 0.00 W/m2
05:14 70.4 °F 48.7 °F 29.94 in Calm   15.0 mph 46 % 0.00 in 0.00 W/m2
05:19 70.4 °F 48.1 °F 29.95 in ESE 4.0 mph 14.0 mph 45 % 0.00 in 0.00 W/m2
05:24 70.4 °F 48.1 °F 29.95 in East 9.0 mph 12.0 mph 45 % 0.00 in 0.00 W/m2
05:29 70.3 °F 48.0 °F 29.95 in ESE 5.0 mph 11.0 mph 45 % 0.00 in 0.00 W/m2
05:34 70.3 °F 48.0 °F 29.95 in East 8.0 mph 12.0 mph 45 % 0.00 in 0.00 W/m2
05:39 70.3 °F 48.0 °F 29.95 in ESE 1.0 mph 13.0 mph 45 % 0.00 in 0.00 W/m2
05:44 70.3 °F 48.0 °F 29.95 in Calm   13.0 mph 45 % 0.00 in 0.00 W/m2
05:49 70.3 °F 48.0 °F 29.95 in East 5.0 mph 14.0 mph 45 % 0.00 in 5.00 W/m2
05:54 70.2 °F 47.9 °F 29.95 in Calm   11.0 mph 45 % 0.00 in 7.00 W/m2
05:59 70.2 °F 47.9 °F 29.95 in ESE 6.0 mph 13.0 mph 45 % 0.00 in 11.00 W/m2
06:04 70.2 °F 47.9 °F 29.95 in ESE 9.0 mph 11.0 mph 45 % 0.00 in 14.00 W/m2
06:09 70.2 °F 47.9 °F 29.95 in ESE 7.0 mph 9.0 mph 45 % 0.00 in 19.00 W/m2
06:14 70.1 °F 47.8 °F 29.96 in ESE 1.0 mph 14.0 mph 45 % 0.00 in 25.00 W/m2
06:19 70.1 °F 47.8 °F 29.96 in ESE 5.0 mph 14.0 mph 45 % 0.00 in 30.00 W/m2
06:24 70.1 °F 47.8 °F 29.96 in ESE 5.0 mph 14.0 mph 45 % 0.00 in 39.00 W/m2
06:25 70.1 °F 47.8 °F 29.96 in East 8.0 mph 14.0 mph 45 % 0.00 in 40.00 W/m2
06:30 70.1 °F 48.4 °F 29.96 in ESE 9.0 mph 12.0 mph 46 % 0.00 in 49.00 W/m2
06:36 70.1 °F 48.4 °F 29.96 in Calm   13.0 mph 46 % 0.00 in 56.00 W/m2
06:41 70.1 °F 48.4 °F 29.96 in Calm   13.0 mph 46 % 0.00 in 67.00 W/m2
06:46 70.1 °F 49.0 °F 29.96 in ESE 1.0 mph 12.0 mph 47 % 0.00 in 72.00 W/m2
06:51 70.1 °F 49.0 °F 29.96 in ESE 1.0 mph 12.0 mph 47 % 0.00 in 69.00 W/m2
06:56 70.2 °F 49.6 °F 29.96 in East 8.0 mph 13.0 mph 48 % 0.00 in 95.00 W/m2
07:01 70.1 °F 49.5 °F 29.97 in East 5.0 mph 14.0 mph 48 % 0.00 in 109.00 W/m2
07:06 70.1 °F 49.5 °F 29.97 in ESE 6.0 mph 14.0 mph 48 % 0.00 in 125.00 W/m2
07:11 70.0 °F 49.4 °F 29.96 in East 6.0 mph 14.0 mph 48 % 0.00 in 139.00 W/m2
07:16 69.9 °F 49.3 °F 29.96 in Calm   11.0 mph 48 % 0.00 in 153.00 W/m2
07:21 69.9 °F 49.9 °F 29.97 in ESE 5.0 mph 12.0 mph 49 % 0.00 in 171.00 W/m2
07:26 69.9 °F 49.9 °F 29.97 in Calm   12.0 mph 49 % 0.00 in 188.00 W/m2
07:31 69.9 °F 50.4 °F 29.97 in ESE 5.0 mph 13.0 mph 50 % 0.00 in 204.00 W/m2
07:36 69.9 °F 50.4 °F 29.97 in ESE 6.0 mph 14.0 mph 50 % 0.00 in 221.00 W/m2
07:41 69.9 °F 51.0 °F 29.97 in ESE 1.0 mph 11.0 mph 51 % 0.00 in 241.00 W/m2
07:46 70.0 °F 51.1 °F 29.97 in ESE 2.0 mph 12.0 mph 51 % 0.00 in 258.00 W/m2
07:51 70.0 °F 51.1 °F 29.97 in Calm   12.0 mph 51 % 0.00 in 278.00 W/m2
07:56 70.0 °F 51.6 °F 29.97 in ESE 5.0 mph 9.0 mph 52 % 0.00 in 287.00 W/m2
08:01 70.1 °F 51.7 °F 29.97 in ESE 6.0 mph 7.0 mph 52 % 0.00 in 306.00 W/m2
08:06 70.2 °F 51.8 °F 29.98 in Calm     52 % 0.00 in 322.00 W/m2
08:11 70.3 °F 51.9 °F 29.97 in ESE 6.0 mph 9.0 mph 52 % 0.00 in 332.00 W/m2
08:16 70.4 °F 52.0 °F 29.97 in Calm   4.0 mph 52 % 0.00 in 341.00 W/m2
08:21 70.4 °F 52.5 °F 29.98 in ESE 4.0 mph 6.0 mph 53 % 0.00 in 366.00 W/m2
08:26 70.6 °F 52.7 °F 29.98 in Calm     53 % 0.00 in 380.00 W/m2
08:31 70.7 °F 53.3 °F 29.98 in ESE 5.0 mph 8.0 mph 54 % 0.00 in 394.00 W/m2
08:36 70.9 °F 53.4 °F 29.98 in ESE 1.0 mph 2.0 mph 54 % 0.00 in 413.00 W/m2
08:41 71.0 °F 54.0 °F 29.98 in Calm   1.0 mph 55 % 0.00 in 429.00 W/m2
08:46 71.2 °F 54.7 °F 29.98 in ESE 1.0 mph 4.0 mph 56 % 0.00 in 443.00 W/m2
08:51 71.5 °F 55.5 °F 29.98 in ESE 2.0 mph 2.0 mph 57 % 0.00 in 452.00 W/m2
08:56 71.7 °F 55.2 °F 29.98 in ESE 4.0 mph 4.0 mph 56 % 0.00 in 466.00 W/m2
09:01 72.0 °F 55.5 °F 29.98 in ESE 6.0 mph 6.0 mph 56 % 0.00 in 478.00 W/m2
09:06 72.2 °F 56.6 °F 29.98 in ESE 2.0 mph 4.0 mph 58 % 0.00 in 490.00 W/m2
09:11 72.5 °F 56.4 °F 29.98 in Calm     57 % 0.00 in 506.00 W/m2
09:16 72.8 °F 56.7 °F 29.98 in Calm   1.0 mph 57 % 0.00 in 526.00 W/m2
09:21 73.1 °F 57.0 °F 29.98 in Calm     57 % 0.00 in 534.00 W/m2
09:26 73.4 °F 55.8 °F 29.98 in Calm     54 % 0.00 in 540.00 W/m2
09:31 73.8 °F 56.6 °F 29.98 in Calm   5.0 mph 55 % 0.00 in 550.00 W/m2
09:36 74.1 °F 57.4 °F 29.98 in Calm   1.0 mph 56 % 0.00 in 570.00 W/m2
09:41 74.4 °F 58.2 °F 29.98 in Calm     57 % 0.00 in 585.00 W/m2
09:46 74.7 °F 58.0 °F 29.98 in Calm     56 % 0.00 in 610.00 W/m2
09:51 74.9 °F 57.7 °F 29.98 in Calm     55 % 0.00 in 621.00 W/m2
09:56 75.2 °F 57.9 °F 29.98 in Calm     55 % 0.00 in 631.00 W/m2
10:01 75.5 °F 58.2 °F 29.98 in Calm     55 % 0.00 in 661.00 W/m2
10:06 75.8 °F 59.0 °F 29.99 in ESE 1.0 mph 4.0 mph 56 % 0.00 in 670.00 W/m2
10:07 75.8 °F 58.5 °F 29.98 in ESE 1.0 mph 5.0 mph 55 % 0.00 in 675.00 W/m2
10:12 76.0 °F 56.0 °F 29.98 in ESE 1.0 mph 1.0 mph 50 % 0.00 in 689.00 W/m2
10:17 76.3 °F 55.8 °F 29.98 in Calm   5.0 mph 49 % 0.00 in 701.00 W/m2
10:22 76.8 °F 57.3 °F 29.99 in ESE 4.0 mph 5.0 mph 51 % 0.00 in 712.00 W/m2
10:27 77.2 °F 56.6 °F 29.99 in Calm   1.0 mph 49 % 0.00 in 728.00 W/m2
10:32 77.6 °F 57.5 °F 29.99 in Calm   1.0 mph 50 % 0.00 in 738.00 W/m2
10:38 78.1 °F 58.0 °F 29.99 in SSE 4.0 mph 7.0 mph 50 % 0.00 in 752.00 W/m2
10:43 78.5 °F 57.2 °F 29.99 in South 2.0 mph 2.0 mph 48 % 0.00 in 758.00 W/m2
10:48 78.9 °F 57.6 °F 29.99 in South 2.0 mph 6.0 mph 48 % 0.00 in 772.00 W/m2
10:53 79.3 °F 54.9 °F 29.99 in Calm   7.0 mph 43 % 0.00 in 780.00 W/m2
10:58 79.7 °F 55.9 °F 29.99 in Calm   1.0 mph 44 % 0.00 in 793.00 W/m2
11:03 80.1 °F 57.5 °F 29.99 in Calm   1.0 mph 46 % 0.00 in 805.00 W/m2
11:08 80.4 °F 57.1 °F 29.99 in Calm   2.0 mph 45 % 0.00 in 810.00 W/m2
11:13 80.7 °F 58.0 °F 29.99 in South 1.0 mph 2.0 mph 46 % 0.00 in 819.00 W/m2
11:18 81.1 °F 57.2 °F 29.99 in Calm   5.0 mph 44 % 0.00 in 826.00 W/m2
11:23 81.4 °F 57.4 °F 29.99 in SSW 2.0 mph 4.0 mph 44 % 0.00 in 837.00 W/m2
11:28 81.6 °F 58.2 °F 29.99 in Calm   4.0 mph 45 % 0.00 in 844.00 W/m2
11:33 81.8 °F 58.4 °F 29.99 in SSW 6.0 mph 8.0 mph 45 % 0.00 in 853.00 W/m2
11:39 82.1 °F 57.4 °F 29.99 in SW 4.0 mph 6.0 mph 43 % 0.00 in 854.00 W/m2
11:44 82.3 °F 57.6 °F 29.99 in Calm   6.0 mph 43 % 0.00 in 867.00 W/m2
11:49 82.5 °F 57.8 °F 29.99 in Calm   5.0 mph 43 % 0.00 in 886.00 W/m2
11:54 82.7 °F 55.2 °F 29.99 in SSW 6.0 mph 9.0 mph 39 % 0.00 in 854.00 W/m2
11:59 83.2 °F 58.4 °F 29.99 in Calm   8.0 mph 43 % 0.00 in 895.00 W/m2
12:04 83.6 °F 56.8 °F 29.99 in SSW 4.0 mph 7.0 mph 40 % 0.00 in 896.00 W/m2
12:09 83.9 °F 54.9 °F 29.99 in Calm   5.0 mph 37 % 0.00 in 898.00 W/m2
12:14 84.2 °F 56.6 °F 29.99 in Calm   11.0 mph 39 % 0.00 in 904.00 W/m2
12:19 84.6 °F 56.2 °F 29.99 in Calm   1.0 mph 38 % 0.00 in 902.00 W/m2
12:24 85.1 °F 55.2 °F 29.99 in Calm   7.0 mph 36 % 0.00 in 904.00 W/m2
12:29 85.8 °F 56.5 °F 30.00 in SSW 5.0 mph 8.0 mph 37 % 0.00 in 907.00 W/m2
12:34 86.5 °F 55.6 °F 30.00 in Calm   9.0 mph 35 % 0.00 in 912.00 W/m2
12:39 87.0 °F 53.6 °F 30.00 in Calm   10.0 mph 32 % 0.00 in 914.00 W/m2
12:44 87.5 °F 54.0 °F 30.00 in South 4.0 mph 11.0 mph 32 % 0.00 in 912.00 W/m2
12:49 87.9 °F 54.4 °F 29.99 in SSE 1.0 mph 6.0 mph 32 % 0.00 in 909.00 W/m2
12:54 88.4 °F 54.0 °F 30.00 in South 5.0 mph 11.0 mph 31 % 0.00 in 921.00 W/m2
12:59 88.6 °F 52.3 °F 29.99 in SSW 3.0 mph 6.0 mph 29 % 0.00 in 923.00 W/m2
13:04 88.3 °F 53.0 °F 29.99 in Calm   6.0 mph 30 % 0.00 in 919.00 W/m2
13:09 87.7 °F 54.2 °F 29.99 in Calm   7.0 mph 32 % 0.00 in 932.00 W/m2
13:14 87.3 °F 53.9 °F 29.99 in West 1.0 mph 7.0 mph 32 % 0.00 in 904.00 W/m2
13:19 87.0 °F 54.5 °F 29.99 in West 1.0 mph 8.0 mph 33 % 0.00 in 912.00 W/m2
13:24 86.9 °F 55.2 °F 29.99 in West 2.0 mph 8.0 mph 34 % 0.00 in 928.00 W/m2
13:29 87.0 °F 53.6 °F 29.99 in South 6.0 mph 8.0 mph 32 % 0.00 in 951.00 W/m2
13:34 87.5 °F 54.0 °F 29.99 in South 3.0 mph 7.0 mph 32 % 0.00 in 316.00 W/m2
13:39 87.9 °F 56.1 °F 29.99 in South 4.0 mph 10.0 mph 34 % 0.00 in 935.00 W/m2
13:44 88.3 °F 55.6 °F 30.00 in SSW 8.0 mph 10.0 mph 33 % 0.00 in 930.00 W/m2
13:49 88.6 °F 55.0 °F 30.00 in SSW 5.0 mph 6.0 mph 32 % 0.00 in 914.00 W/m2
13:54 88.6 °F 54.1 °F 29.99 in Calm   2.0 mph 31 % 0.00 in 902.00 W/m2
13:59 88.2 °F 53.8 °F 29.99 in SW 2.0 mph 4.0 mph 31 % 0.00 in 826.00 W/m2
14:04 87.9 °F 56.9 °F 29.99 in Calm   7.0 mph 35 % 0.00 in 921.00 W/m2
14:09 87.6 °F 55.0 °F 29.99 in Calm   5.0 mph 33 % 0.00 in 947.00 W/m2
14:14 87.3 °F 55.5 °F 29.99 in Calm   4.0 mph 34 % 0.00 in 958.00 W/m2
14:19 87.1 °F 56.2 °F 29.99 in Calm   1.0 mph 35 % 0.00 in 849.00 W/m2
14:24 86.9 °F 56.8 °F 29.99 in Calm   6.0 mph 36 % 0.00 in 879.00 W/m2
14:29 86.9 °F 56.0 °F 29.99 in WSW 4.0 mph 10.0 mph 35 % 0.00 in 886.00 W/m2
14:34 86.8 °F 55.9 °F 29.99 in SW 7.0 mph 9.0 mph 35 % 0.00 in 904.00 W/m2
14:44 86.8 °F 56.7 °F 29.99 in Calm   4.0 mph 36 % 0.00 in 838.00 W/m2
14:49 86.9 °F 56.0 °F 29.99 in SW 10.0 mph 12.0 mph 35 % 0.00 in 751.00 W/m2
14:54 86.9 °F 56.8 °F 29.99 in WSW 1.0 mph 8.0 mph 36 % 0.00 in 761.00 W/m2
14:56 86.8 °F 55.9 °F 29.99 in WSW 7.0 mph 9.0 mph 35 % 0.00 in 503.00 W/m2
15:01 86.5 °F 57.2 °F 29.99 in Calm     37 % 0.00 in 865.00 W/m2
15:06 86.4 °F 54.7 °F 29.99 in Calm     34 % 0.00 in 868.00 W/m2
15:11 86.3 °F 57.7 °F 29.99 in WSW 2.0 mph 6.0 mph 38 % 0.00 in 860.00 W/m2
15:16 86.4 °F 57.1 °F 29.99 in Calm     37 % 0.00 in 833.00 W/m2
15:21 86.5 °F 56.4 °F 29.99 in Calm   2.0 mph 36 % 0.00 in 823.00 W/m2
15:26 86.5 °F 54.8 °F 29.99 in Calm   3.0 mph 34 % 0.00 in 805.00 W/m2
15:31 86.5 °F 53.2 °F 29.99 in West 4.0 mph 5.0 mph 32 % 0.00 in 784.00 W/m2
15:36 86.4 °F 55.5 °F 29.99 in West 5.0 mph 5.0 mph 35 % 0.00 in 698.00 W/m2
15:37 86.3 °F 53.0 °F 29.99 in Calm   6.0 mph 32 % 0.00 in 705.00 W/m2
15:42 86.1 °F 54.5 °F 29.99 in Calm   6.0 mph 34 % 0.00 in 606.00 W/m2
15:48 86.1 °F 54.5 °F 29.99 in WSW 1.0 mph 6.0 mph 34 % 0.00 in 538.00 W/m2
15:53 86.0 °F 55.2 °F 29.99 in WSW 4.0 mph 6.0 mph 35 % 0.00 in 178.00 W/m2
15:58 85.9 °F 56.6 °F 29.99 in Calm   1.0 mph 37 % 0.00 in 784.00 W/m2
16:03 85.7 °F 55.7 °F 29.99 in SW 1.0 mph 4.0 mph 36 % 0.00 in 717.00 W/m2
16:08 85.8 °F 54.2 °F 29.98 in Calm   8.0 mph 34 % 0.00 in 758.00 W/m2
16:13 85.9 °F 53.5 °F 29.98 in South 1.0 mph 9.0 mph 33 % 0.00 in 705.00 W/m2
16:18 86.0 °F 52.7 °F 29.99 in Calm   5.0 mph 32 % 0.00 in 686.00 W/m2
16:23 86.2 °F 52.9 °F 29.98 in SW 6.0 mph 6.0 mph 32 % 0.00 in 680.00 W/m2
16:28 86.3 °F 52.1 °F 29.98 in Calm   8.0 mph 31 % 0.00 in 628.00 W/m2
16:33 86.3 °F 52.1 °F 29.98 in SSW 2.0 mph 5.0 mph 31 % 0.00 in 633.00 W/m2
16:38 86.3 °F 53.8 °F 29.98 in SW 6.0 mph 7.0 mph 33 % 0.00 in 619.00 W/m2
16:43 86.3 °F 53.0 °F 29.98 in SW 5.0 mph 6.0 mph 32 % 0.00 in 605.00 W/m2
16:48 86.3 °F 53.0 °F 29.98 in Calm   9.0 mph 32 % 0.00 in 591.00 W/m2
16:53 86.2 °F 51.2 °F 29.98 in WSW 1.0 mph 8.0 mph 30 % 0.00 in 552.00 W/m2
16:58 86.2 °F 52.9 °F 29.98 in WSW 2.0 mph 7.0 mph 32 % 0.00 in 550.00 W/m2
17:03 86.1 °F 54.5 °F 29.98 in Calm   7.0 mph 34 % 0.00 in 520.00 W/m2
17:08 86.0 °F 54.4 °F 29.98 in Calm     34 % 0.00 in 468.00 W/m2
17:13 85.9 °F 52.7 °F 29.97 in Calm   2.0 mph 32 % 0.00 in 475.00 W/m2
17:18 85.8 °F 51.7 °F 29.97 in Calm   5.0 mph 31 % 0.00 in 443.00 W/m2
17:23 85.7 °F 53.3 °F 29.97 in Calm   2.0 mph 33 % 0.00 in 454.00 W/m2
17:28 85.6 °F 54.8 °F 29.97 in Calm   1.0 mph 35 % 0.00 in 429.00 W/m2
17:33 85.3 °F 55.3 °F 29.97 in Calm   1.0 mph 36 % 0.00 in 431.00 W/m2
17:38 85.0 °F 52.7 °F 29.97 in Calm   6.0 mph 33 % 0.00 in 436.00 W/m2
17:43 84.9 °F 54.2 °F 29.97 in Calm   4.0 mph 35 % 0.00 in 404.00 W/m2
17:49 84.8 °F 54.9 °F 29.97 in Calm   5.0 mph 36 % 0.00 in 399.00 W/m2
17:54 84.7 °F 54.0 °F 29.97 in Calm   1.0 mph 35 % 0.00 in 380.00 W/m2
17:58 84.6 °F 54.7 °F 29.97 in Calm   4.0 mph 36 % 0.00 in 359.00 W/m2
18:04 84.4 °F 56.0 °F 29.97 in Calm   1.0 mph 38 % 0.00 in 330.00 W/m2
18:09 84.3 °F 55.2 °F 29.97 in Calm   2.0 mph 37 % 0.00 in 330.00 W/m2
18:14 84.2 °F 55.1 °F 29.96 in Calm   1.0 mph 37 % 0.00 in 323.00 W/m2
18:19 84.0 °F 55.0 °F 29.96 in Calm   1.0 mph 37 % 0.00 in 297.00 W/m2
18:24 83.9 °F 56.3 °F 29.96 in Calm   2.0 mph 39 % 0.00 in 276.00 W/m2
18:29 83.7 °F 56.1 °F 29.96 in Calm   1.0 mph 39 % 0.00 in 257.00 W/m2
18:34 83.5 °F 56.7 °F 29.96 in Calm     40 % 0.00 in 241.00 W/m2
18:39 83.2 °F 57.1 °F 29.96 in Calm     41 % 0.00 in 237.00 W/m2
18:44 82.7 °F 58.0 °F 29.96 in Calm     43 % 0.00 in 220.00 W/m2
18:49 82.4 °F 58.3 °F 29.96 in Calm     44 % 0.00 in 207.00 W/m2
18:54 82.0 °F 57.3 °F 29.96 in Calm     43 % 0.00 in 193.00 W/m2
18:59 81.7 °F 58.9 °F 29.96 in Calm     46 % 0.00 in 183.00 W/m2
19:04 81.3 °F 59.2 °F 29.96 in Calm   1.0 mph 47 % 0.00 in 162.00 W/m2
19:09 81.0 °F 58.9 °F 29.96 in Calm     47 % 0.00 in 146.00 W/m2
19:14 80.6 °F 59.7 °F 29.96 in Calm     49 % 0.00 in 134.00 W/m2
19:19 80.3 °F 59.4 °F 29.96 in Calm   1.0 mph 49 % 0.00 in 118.00 W/m2
19:24 79.9 °F 58.5 °F 29.96 in Calm   1.0 mph 48 % 0.00 in 97.00 W/m2
19:29 79.7 °F 58.3 °F 29.96 in Calm   3.0 mph 48 % 0.00 in 83.00 W/m2
19:34 79.6 °F 58.8 °F 29.96 in Calm   3.0 mph 49 % 0.00 in 69.00 W/m2
19:39 79.4 °F 58.0 °F 29.96 in Calm   3.0 mph 48 % 0.00 in 56.00 W/m2
19:44 79.0 °F 57.7 °F 29.96 in Calm   1.0 mph 48 % 0.00 in 44.00 W/m2
19:49 78.7 °F 57.4 °F 29.96 in Calm   1.0 mph 48 % 0.00 in 37.00 W/m2
19:54 78.4 °F 57.7 °F 29.96 in Calm   1.0 mph 49 % 0.00 in 28.00 W/m2
19:59 78.0 °F 57.3 °F 29.97 in Calm     49 % 0.00 in 21.00 W/m2
20:04 77.7 °F 56.5 °F 29.96 in Calm   1.0 mph 48 % 0.00 in 18.00 W/m2
20:09 77.3 °F 56.1 °F 29.97 in WSW 1.0 mph 1.0 mph 48 % 0.00 in 14.00 W/m2
20:14 76.9 °F 55.7 °F 29.97 in Calm   1.0 mph 48 % 0.00 in 12.00 W/m2
20:19 76.6 °F 55.5 °F 29.97 in Calm   1.0 mph 48 % 0.00 in 9.00 W/m2
20:24 76.3 °F 55.2 °F 29.97 in Calm     48 % 0.00 in 7.00 W/m2
20:29 75.9 °F 55.4 °F 29.97 in Calm   1.0 mph 49 % 0.00 in 5.00 W/m2
20:34 75.6 °F 55.1 °F 29.97 in Calm   1.0 mph 49 % 0.00 in 0.00 W/m2
20:39 75.3 °F 54.3 °F 29.97 in Calm   1.0 mph 48 % 0.00 in 0.00 W/m2
20:44 75.0 °F 54.0 °F 29.97 in Calm   1.0 mph 48 % 0.00 in 0.00 W/m2
20:49 74.8 °F 53.8 °F 29.98 in Calm   1.0 mph 48 % 0.00 in 0.00 W/m2
20:54 74.6 °F 54.2 °F 29.97 in Calm   1.0 mph 49 % 0.00 in 0.00 W/m2
20:59 74.4 °F 53.5 °F 29.98 in Calm   1.0 mph 48 % 0.00 in 0.00 W/m2
21:04 74.3 °F 53.9 °F 29.97 in Calm   1.0 mph 49 % 0.00 in 0.00 W/m2
21:10 74.1 °F 53.7 °F 29.97 in Calm     49 % 0.00 in 0.00 W/m2
21:15 74.0 °F 53.7 °F 29.97 in Calm   1.0 mph 49 % 0.00 in 0.00 W/m2
21:20 73.9 °F 53.0 °F 29.97 in Calm     48 % 0.00 in 0.00 W/m2
21:25 73.8 °F 52.9 °F 29.98 in Calm   1.0 mph 48 % 0.00 in 0.00 W/m2
21:30 73.7 °F 53.4 °F 29.98 in Calm     49 % 0.00 in 0.00 W/m2
21:35 73.6 °F 53.3 °F 29.98 in Calm     49 % 0.00 in 0.00 W/m2
21:40 73.5 °F 53.2 °F 29.98 in Calm   1.0 mph 49 % 0.00 in 0.00 W/m2
21:45 73.3 °F 53.0 °F 29.98 in Calm     49 % 0.00 in 0.00 W/m2
21:50 73.2 °F 52.9 °F 29.98 in Calm     49 % 0.00 in 0.00 W/m2
21:55 73.1 °F 53.4 °F 29.98 in Calm     50 % 0.00 in 0.00 W/m2
22:00 72.9 °F 53.2 °F 29.99 in Calm   1.0 mph 50 % 0.00 in 0.00 W/m2
22:05 72.9 °F 53.2 °F 29.99 in Calm   1.0 mph 50 % 0.00 in 0.00 W/m2
22:10 72.7 °F 53.0 °F 29.99 in Calm   1.0 mph 50 % 0.00 in 0.00 W/m2
22:15 72.6 °F 52.9 °F 29.99 in Calm   1.0 mph 50 % 0.00 in 0.00 W/m2
22:20 72.6 °F 53.5 °F 29.99 in WSW 1.0 mph 1.0 mph 51 % 0.00 in 0.00 W/m2
22:25 72.5 °F 53.4 °F 29.99 in Calm   4.0 mph 51 % 0.00 in 0.00 W/m2
22:30 72.5 °F 53.4 °F 29.99 in Calm   6.0 mph 51 % 0.00 in 0.00 W/m2
22:35 72.4 °F 53.8 °F 29.99 in Calm   6.0 mph 52 % 0.00 in 0.00 W/m2
22:40 72.4 °F 53.8 °F 29.99 in SSE 2.0 mph 8.0 mph 52 % 0.00 in 0.00 W/m2
22:45 72.4 °F 53.8 °F 29.99 in Calm   6.0 mph 52 % 0.00 in 0.00 W/m2
22:50 72.4 °F 53.8 °F 29.99 in SE 1.0 mph 7.0 mph 52 % 0.00 in 0.00 W/m2
22:55 72.4 °F 53.8 °F 29.99 in SE 5.0 mph 8.0 mph 52 % 0.00 in 0.00 W/m2
23:00 72.4 °F 53.8 °F 29.98 in Calm   7.0 mph 52 % 0.00 in 0.00 W/m2
23:05 72.3 °F 53.7 °F 29.99 in ESE 1.0 mph 8.0 mph 52 % 0.00 in 0.00 W/m2
23:10 72.3 °F 53.7 °F 29.99 in ESE 4.0 mph 8.0 mph 52 % 0.00 in 0.00 W/m2
23:15 72.3 °F 54.2 °F 29.99 in ESE 5.0 mph 9.0 mph 53 % 0.00 in 0.00 W/m2
23:16 72.3 °F 54.2 °F 29.99 in ESE 8.0 mph 8.0 mph 53 % 0.00 in 0.00 W/m2
23:21 72.3 °F 54.2 °F 29.99 in ESE 7.0 mph 7.0 mph 53 % 0.00 in 0.00 W/m2
23:26 72.2 °F 54.1 °F 29.99 in ESE 7.0 mph 8.0 mph 53 % 0.00 in 0.00 W/m2
23:31 72.2 °F 54.1 °F 29.99 in East 4.0 mph 6.0 mph 53 % 0.00 in 0.00 W/m2
23:36 72.2 °F 54.1 °F 29.98 in East 6.0 mph 6.0 mph 53 % 0.00 in 0.00 W/m2
23:41 72.2 °F 53.6 °F 29.99 in East 1.0 mph 6.0 mph 52 % 0.00 in 0.00 W/m2
23:46 72.2 °F 53.6 °F 29.99 in East 5.0 mph 12.0 mph 52 % 0.00 in 0.00 W/m2
23:51 72.2 °F 53.6 °F 29.99 in ESE 1.0 mph 5.0 mph 52 % 0.00 in 0.00 W/m2
23:56 72.2 °F 54.1 °F 29.98 in ESE 2.0 mph 5.0 mph 53 % 0.00 in 0.00 W/m2
Juneau County Weather
Compliments of Weather Underground - 4.5 mb
 WU-history PHP script courtesy of   Juneau County Weather.
powered by Cumulus v1.9.3 (1059)
Ambient Weather VWS v14.00
Top Contact Website Map Copyright © 2007 - 2018 Foresthillweather.com Never base important decisions on this or any weather information obtained from the Internet